SWA3171 KMCO-KPBI

Flight info

Callsign SWA3171
Flight time N/A
Altitude 17000
Route DDANY3 BORRD CPTAN3
Aircraft B737/M-SDE2E3FGHIRWXY/LB1

Departure

Time N/A
Airport Orlando International Airport (KMCO)

Arrival

Time 2026-04-29 14:33
Airport Palm Beach International Airport (KPBI)
Time Latitude Longitude Altitude Speed Heading
2026-04-29 14:29 26.70029 -80.25139 2261 ft 166 kts 131°
2026-04-29 14:30 26.69373 -80.24096 2162 ft 164 kts 118°
2026-04-29 14:30 26.68956 -80.22935 2093 ft 163 kts 105°
2026-04-29 14:30 26.68774 -80.21689 1988 ft 156 kts 94°
2026-04-29 14:30 26.68727 -80.20530 1769 ft 143 kts 93°
2026-04-29 14:31 26.68684 -80.19437 1588 ft 139 kts 93°
2026-04-29 14:31 26.68641 -80.18363 1419 ft 138 kts 93°
2026-04-29 14:31 26.68598 -80.17292 1243 ft 138 kts 93°
2026-04-29 14:31 26.68553 -80.16223 1084 ft 137 kts 92°
2026-04-29 14:32 26.68508 -80.15156 898 ft 137 kts 93°
2026-04-29 14:32 26.68467 -80.14068 712 ft 145 kts 93°
2026-04-29 14:32 26.68425 -80.12947 525 ft 145 kts 94°
2026-04-29 14:32 26.68366 -80.11814 299 ft 145 kts 94°
2026-04-29 14:33 26.68313 -80.10661 93 ft 150 kts 93°
2026-04-29 14:33 26.68265 -80.09540 21 ft 127 kts 92°
2026-04-29 14:33 26.68233 -80.08803 21 ft 63 kts 92°
2026-04-29 14:33 26.68225 -80.08556 21 ft 2 kts 91°
2026-04-29 14:34 26.68223 -80.08531 21 ft 7 kts 94°
2026-04-29 14:34 26.68217 -80.08403 21 ft 23 kts 93°
2026-04-29 14:34 26.68208 -80.08227 21 ft 22 kts 93°
2026-04-29 14:34 26.68277 -80.08158 21 ft 14 kts 358°
2026-04-29 14:35 26.68318 -80.08242 21 ft 14 kts 273°
2026-04-29 14:35 26.68323 -80.08346 21 ft 13 kts 273°
2026-04-29 14:35 26.68327 -80.08445 21 ft 13 kts 272°
2026-04-29 14:35 26.68331 -80.08541 21 ft 12 kts 273°
2026-04-29 14:36 26.68336 -80.08636 24 ft 12 kts 272°
2026-04-29 14:36 26.68340 -80.08749 21 ft 19 kts 272°
2026-04-29 14:36 26.68348 -80.08933 21 ft 28 kts 273°
2026-04-29 14:36 26.68358 -80.09149 21 ft 28 kts 273°
2026-04-29 14:37 26.68370 -80.09315 22 ft 16 kts 292°
2026-04-29 14:37 26.68454 -80.09379 21 ft 15 kts 17°
2026-04-29 14:37 26.68532 -80.09354 21 ft 12 kts 320°
2026-04-29 14:37 26.68586 -80.09420 21 ft 11 kts 317°
2026-04-29 14:38 26.68643 -80.09477 21 ft 11 kts 318°
2026-04-29 14:38 26.68710 -80.09486 21 ft 11 kts 32°
2026-04-29 14:38 26.68760 -80.09427 22 ft 10 kts 49°
2026-04-29 14:38 26.68801 -80.09364 21 ft 10 kts 79°
2026-04-29 14:39 26.68770 -80.09303 21 ft 7 kts 139°
2026-04-29 14:39 26.68757 -80.09290 21 ft 0 kts 139°